Location: Lake Arresoe
(56.0000°N, 12.5000°E)
Time: 09:48:58
(UTC+02:00)

Cosmos 1674 - Pass Details

Date: 17 August 2020
Orbit: 495 x 517 km, 82.5° (Epoch: 23 September)

Event Time Altitude Azimuth Distance (km) Brightness Sun altitude
Rises 00:32:43 0° 354° (N) 2,604 7.9 -20.1°
Reaches altitude 10° 00:35:03 10° 5° (N) 1,718 6.4 -20.2°
Maximum altitude 00:38:22 29° 68° (ENE) 946 4.1 -20.2°
Enters shadow 00:39:15 26° 93° (E) 1,019 4.0 -20.3°
